RH
57 56 53 60 71 58 25 5 1 1 1 1 2 1 1 2 2 2 2 3 3 4 4 4 4 5 6 7 7 8 9 10 12 15 18 21 21 22 24 25 26 28 30 33 35 38 41 43 45 48 51 55 59 61 64 65 66 68 67 67 68 63 58 58 53 52 62 68 64 62 62 61 63 65 65 64 64 67 72 72 71 70 65 61 63
58 56 54 63 70 48 16 3 1 1 2 1 1 1 1 2 2 2 3 3 4 4 4 4 4 5 6 7 8 9 10 11 13 17 20 23 24 23 25 26 27 29 31 33 35 37 39 41 44 46 49 53 57 60 63 65 67 69 71 70 72 72 66 63 61 55 57 63 64 62 63 64 64 65 67 67 64 64 69 74 73 70 67 63 64
59 56 56 67 67 39 10 2 1 1 2 1 1 1 1 2 2 2 3 3 4 4 4 4 5 6 7 7 9 10 12 13 15 18 21 24 25 25 26 27 28 30 31 33 36 37 39 40 42 45 48 51 55 58 60 63 65 67 71 72 72 75 74 70 67 63 59 61 65 63 61 65 67 65 66 70 70 67 68 73 75 74 70 64 65
60 56 59 70 61 28 6 1 1 1 2 1 2 1 2 2 2 3 3 4 4 4 4 5 5 7 7 8 10 11 13 15 17 18 21 24 25 25 26 27 28 29 31 33 35 37 38 39 41 44 47 50 53 57 59 60 62 64 67 71 73 74 76 74 72 69 65 62 65 68 65 63 67 66 63 66 70 71 72 73 72 74 74 68 66
60 56 63 72 53 18 2 2 1 1 2 1 2 1 2 2 2 3 4 4 4 4 5 5 6 7 8 9 10 12 14 16 18 19 20 22 24 25 25 26 27 28 30 32 34 36 36 38 41 43 47 51 53 55 59 60 61 62 64 67 70 72 72 73 72 71 70 66 63 67 68 64 65 68 65 62 63 64 68 75 74 70 71 70 68
60 57 66 70 43 10 1 2 1 1 2 1 2 2 2 2 3 3 4 4 5 5 5 6 7 8 9 10 11 13 14 16 18 20 21 22 23 24 25 25 26 28 29 32 33 35 36 38 42 46 49 53 56 58 61 63 63 62 62 63 66 69 69 70 70 69 70 71 66 64 67 65 62 66 67 64 64 61 57 62 69 70 70 68 65
60 59 70 65 32 5 1 2 1 2 2 1 2 2 2 2 3 4 4 4 5 5 6 6 8 8 10 11 12 14 15 17 19 20 22 23 24 25 26 25 26 28 29 32 33 35 38 41 45 50 53 56 60 63 64 65 65 63 62 61 63 66 67 67 68 66 66 68 67 63 65 67 65 64 65 64 66 69 62 55 56 60 66 69 65
60 61 71 58 23 2 1 2 1 2 1 1 2 2 2 2 3 4 4 5 5 6 6 7 8 10 11 12 13 15 16 17 19 21 22 24 25 27 27 27 29 30 31 32 34 37 41 45 49 52 57 60 63 66 67 66 66 64 63 61 59 58 58 58 57 56 56 58 59 57 58 63 63 62 63 61 60 65 68 66 62 59 61 68 70
61 65 70 49 15 1 2 1 1 2 1 2 2 2 2 3 4 4 4 5 5 6 7 8 9 10 12 13 14 15 17 18 20 21 22 24 25 26 27 28 30 33 34 34 37 41 44 47 51 54 59 63 67 70 72 70 67 62 57 53 48 45 43 43 41 41 43 45 46 47 49 52 54 54 56 58 58 60 65 69 71 70 67 68 71
62 67 66 39 8 1 2 1 2 2 1 2 2 2 2 3 4 4 4 5 6 7 8 9 10 11 12 13 14 15 17 19 20 21 22 24 25 26 26 28 31 33 35 38 41 45 47 48 50 53 58 64 69 72 73 72 66 58 49 41 35 32 31 31 31 32 36 40 41 42 44 45 46 48 50 54 56 59 63 66 70 73 71 67 66
63 69 61 29 4 1 2 1 2 2 1 2 2 2 3 3 4 4 5 5 6 7 8 9 10 11 12 13 14 15 16 18 19 20 21 22 23 25 26 28 31 33 35 39 43 47 50 49 47 47 52 57 63 65 62 58 52 45 38 32 26 25 25 26 29 31 35 41 45 47 49 48 48 47 46 50 53 55 60 65 70 75 77 73 67
65 70 55 21 2 2 2 1 2 1 1 2 2 2 3 3 4 4 5 6 6 7 9 10 10 11 12 13 14 15 16 17 17 18 19 20 21 23 26 28 31 34 36 39 42 44 46 47 44 41 42 43 44 44 40 35 31 27 25 24 22 22 23 25 29 34 40 48 54 61 64 61 59 58 52 49 52 54 58 62 67 74 80 81 76
67 69 48 14 1 2 1 1 2 1 2 2 2 2 3 3 4 4 5 6 7 8 9 9 10 11 11 12 13 14 15 15 16 17 18 20 22 23 26 29 32 35 37 38 38 38 37 38 38 35 32 29 26 24 21 18 18 18 19 20 21 23 24 25 30 38 47 57 67 77 81 75 70 70 65 56 53 54 57 59 64 72 78 81 80
69 67 41 10 1 2 1 2 2 1 2 2 2 2 3 4 4 4 5 6 6 8 8 9 10 10 11 12 13 13 14 14 15 17 19 21 23 25 28 31 34 35 36 36 35 34 31 28 27 24 22 19 17 16 16 16 17 18 19 19 21 22 25 30 40 50 59 70 80 85 87 84 80 77 74 69 64 60 59 59 61 67 74 79 81
71 64 34 6 1 2 1 2 2 1 2 2 2 3 3 4 5 4 5 6 6 7 8 9 10 10 11 12 12 13 14 15 16 18 20 22 25 28 30 33 36 36 36 36 34 32 29 24 20 17 16 16 16 17 19 20 21 22 21 20 20 21 24 35 54 70 77 83 88 83 77 77 78 79 81 82 80 74 69 65 61 62 68 74 78
72 59 26 4 1 2 1 2 2 1 2 2 2 3 3 4 5 5 5 6 6 7 8 9 9 10 11 11 12 13 13 15 17 18 22 25 27 30 33 35 38 38 37 36 34 31 27 21 17 15 15 16 17 20 22 22 24 25 24 23 22 20 21 32 57 80 89 92 91 81 67 63 66 70 75 80 85 84 78 70 63 60 64 70 75
73 52 19 2 2 2 1 2 1 1 2 2 2 2 3 4 4 5 5 5 6 6 7 8 9 9 11 11 12 13 13 15 18 20 23 27 29 32 36 37 39 40 38 36 34 32 27 20 16 15 15 17 19 21 24 25 25 28 30 30 29 28 26 31 50 76 91 97 97 85 67 58 57 59 60 65 75 84 83 75 65 60 63 68 73
70 43 12 1 2 1 2 2 1 2 2 2 2 2 3 5 4 5 5 4 5 6 7 8 8 9 11 12 12 13 14 16 19 22 25 28 30 33 36 38 39 39 39 38 35 32 27 19 15 15 16 19 21 23 26 28 31 36 40 41 41 40 39 41 52 72 88 96 99 91 72 59 55 54 54 56 62 74 84 83 73 65 65 71 76
64 34 7 1 2 1 2 2 1 2 2 2 3 2 3 4 4 5 5 5 5 6 7 7 8 9 10 12 13 14 15 17 20 23 26 28 31 33 35 36 38 37 37 38 37 33 26 18 15 15 18 21 24 27 31 35 41 47 49 49 48 48 49 52 57 68 80 88 94 90 71 56 51 50 51 53 54 62 77 88 87 77 72 77 81
60 29 6 1 2 1 2 2 1 2 2 2 2 3 3 4 5 5 6 6 6 6 7 7 8 9 10 12 13 14 15 17 20 23 26 28 31 33 32 33 35 35 35 34 33 29 22 17 15 16 20 24 28 33 39 44 49 54 54 52 51 50 52 57 62 69 77 82 89 91 75 55 48 47 47 51 53 55 65 84 95 92 85 83 86
52 19 2 1 2 1 1 2 2 2 2 2 2 3 3 4 5 5 5 6 6 6 7 7 7 9 10 11 13 14 15 17 20 23 26 28 29 30 30 30 31 32 33 31 29 24 18 15 15 18 24 30 35 39 45 48 50 52 53 52 51 49 51 56 62 69 76 78 81 90 85 63 47 44 44 46 51 53 57 72 91 99 95 90 87
39 9 1 2 2 2 2 2 2 2 2 2 2 3 3 4 5 5 5 5 6 6 7 7 8 9 10 11 12 13 15 18 21 23 26 28 28 27 28 28 28 29 30 29 26 21 16 14 16 22 28 34 38 40 42 44 44 44 45 45 45 45 47 51 55 61 70 72 69 76 82 70 50 41 42 42 45 49 52 61 80 96 100 97 93
29 6 2 2 1 2 2 2 2 2 2 2 2 2 3 4 4 5 5 5 6 7 7 7 8 9 10 11 12 13 16 18 21 24 26 27 26 26 26 26 27 28 28 27 24 19 16 15 18 26 32 35 37 37 37 37 36 34 33 33 33 34 36 38 41 45 52 57 55 59 71 72 56 42 39 40 41 43 46 51 63 82 97 101 99
20 4 1 1 2 2 2 1 2 2 2 2 3 2 3 4 4 5 6 6 6 7 7 8 9 9 10 11 11 13 16 18 21 24 26 26 25 25 25 25 26 28 29 28 23 17 15 16 21 29 34 35 35 35 34 33 30 28 26 24 23 24 24 24 27 31 33 36 37 42 53 63 61 49 40 39 40 40 41 43 47 60 80 97 102
12 3 1 2 2 2 2 2 2 2 2 2 2 3 3 3 4 5 6 6 7 7 8 8 9 9 10 11 11 13 16 20 22 23 24 25 25 25 26 26 27 29 30 28 23 17 15 18 25 31 34 34 33 33 32 31 27 24 22 20 20 20 20 21 24 26 26 25 26 31 38 46 54 54 46 41 40 40 40 39 38 42 55 75 93
8 2 1 2 2 2 2 2 1 2 3 2 2 3 3 3 4 5 6 7 6 7 8 8 9 9 10 11 12 13 16 20 23 23 22 24 26 26 28 29 30 31 31 27 21 16 16 20 27 32 34 33 33 31 29 27 24 21 19 19 21 24 28 33 37 37 38 36 32 30 30 32 39 47 48 45 42 40 40 39 37 36 40 51 71
5 2 2 1 2 2 2 2 2 2 2 2 2 3 3 3 4 5 6 6 6 7 8 9 9 9 10 11 12 14 17 21 22 22 22 24 26 28 30 31 31 31 29 25 19 16 17 23 30 33 33 33 33 31 28 24 21 21 21 23 29 36 42 50 54 56 57 58 54 48 40 33 30 33 38 42 42 41 41 40 37 34 34 39 50
3 2 2 1 2 2 2 2 2 2 2 3 3 3 3 4 4 5 5 6 6 7 7 8 9 9 10 12 13 15 19 21 22 22 23 24 27 30 31 32 31 29 26 21 17 16 19 26 32 34 33 33 33 30 26 23 21 23 28 34 41 49 57 63 68 71 73 75 74 71 64 55 46 37 31 31 33 34 35 36 36 33 31 34 40
2 1 2 2 2 2 2 2 2 2 2 2 3 3 3 4 4 5 6 6 7 7 7 8 9 10 10 12 15 18 22 23 22 22 23 24 26 29 30 29 27 25 21 17 15 17 23 29 32 33 32 31 29 26 23 23 26 31 38 47 55 62 69 75 78 81 84 86 85 84 83 79 73 64 52 40 32 28 25 25 27 27 26 28 33
2 2 2 2 2 2 2 2 2 2 2 2 3 3 3 4 5 5 6 7 7 7 8 9 9 10 12 13 16 20 23 24 23 23 24 25 26 28 28 26 24 21 17 15 15 19 26 31 32 32 32 29 25 22 23 28 36 44 50 58 65 71 76 81 85 87 90 92 92 91 91 90 88 84 79 69 56 43 31 23 19 20 21 23 28
2 2 2 2 2 2 2 2 2 2 3 3 3 3 4 4 5 5 6 8 8 7 8 9 9 11 13 15 17 20 22 22 23 23 24 26 27 28 27 25 22 19 15 13 16 21 28 31 32 32 32 28 23 22 25 33 43 53 58 63 69 75 79 84 88 91 93 94 95 96 95 95 95 94 91 88 82 71 56 39 25 17 16 17 22
1 2 2 2 2 2 2 2 3 2 3 3 3 3 4 4 5 6 7 7 8 8 8 9 10 12 14 16 19 22 22 22 22 23 25 26 27 27 26 24 21 18 14 13 17 24 29 31 32 32 31 26 22 22 28 38 48 56 61 66 70 76 81 86 90 93 95 95 96 97 97 98 99 99 98 96 94 90 81 66 47 28 17 13 15
2 2 2 2 2 2 2 2 3 2 3 3 3 3 4 4 5 6 6 7 8 8 8 10 11 13 14 17 21 23 23 22 23 25 26 26 26 26 25 23 20 16 13 13 18 26 31 32 33 33 29 24 22 24 32 42 51 58 62 67 71 76 81 86 91 95 98 99 98 98 99 99 99 101 102 101 99 98 95 87 73 52 31 18 13
2 2 2 2 2 2 2 2 3 3 3 3 3 4 4 5 5 6 7 7 8 8 9 10 12 14 15 18 21 23 23 24 25 25 25 25 25 24 24 22 20 16 13 14 20 27 31 32 32 32 28 24 23 27 35 45 53 59 63 67 72 77 81 87 92 97 100 102 102 101 100 100 99 100 101 101 101 101 101 99 91 77 56 34 19
2 2 2 2 2 2 3 2 3 3 3 3 4 4 4 5 6 7 7 8 8 8 9 11 13 15 16 19 22 24 24 24 24 24 24 24 24 23 22 21 19 15 13 15 22 29 32 32 33 31 27 23 24 29 38 47 54 58 62 66 69 74 80 86 93 98 101 102 103 103 102 100 99 100 100 100 99 100 101 102 100 94 81 59 36
2 2 3 2 2 2 3 2 3 3 3 4 4 4 5 5 6 7 7 8 8 9 10 12 14 15 17 20 23 24 24 24 23 23 24 24 23 22 21 19 17 14 13 16 23 30 33 33 33 31 26 23 25 30 39 48 54 58 62 66 68 72 79 86 94 99 102 103 102 102 101 99 98 98 99 100 100 100 100 101 101 100 95 82 58
2 2 2 2 3 3 2 3 3 3 3 4 4 4 5 6 6 7 7 8 9 10 12 13 14 15 16 19 21 21 22 23 23 23 24 23 22 21 20 17 15 13 13 17 25 31 33 34 33 30 25 23 25 32 40 49 55 58 62 67 70 75 82 91 99 102 102 102 102 101 100 99 98 98 98 98 100 101 100 100 101 101 101 96 80
2 3 2 2 3 3 2 3 3 3 3 4 4 4 5 6 7 7 8 8 9 11 13 16 16 17 18 19 20 20 22 23 23 24 24 23 22 21 20 17 15 12 13 19 27 31 33 34 33 29 25 23 26 33 42 49 54 58 62 66 72 80 89 97 102 102 102 102 103 102 102 101 100 100 99 98 99 100 101 101 101 100 101 102 96
2 3 2 2 3 3 2 3 3 3 4 4 4 5 6 6 7 7 8 9 10 12 15 18 19 20 20 20 20 20 21 22 24 25 25 24 23 21 19 16 14 12 14 21 29 32 33 34 32 28 24 23 27 35 43 50 54 59 62 66 73 85 95 101 102 101 102 103 103 103 103 103 103 102 101 100 100 100 100 101 101 101 100 101 102
2 3 2 2 3 3 3 3 3 3 4 4 5 6 6 6 7 8 8 10 12 14 17 21 21 20 20 20 19 19 20 22 23 24 24 23 22 20 18 15 13 12 17 24 30 33 33 34 32 27 23 24 28 36 44 50 55 59 63 68 79 91 100 103 102 102 103 104 104 104 104 104 104 103 101 101 101 101 101 101 101 101 102 101 103
3 3 2 3 3 3 3 3 3 3 4 4 5 6 7 7 7 8 9 11 13 15 18 21 22 21 20 19 18 18 19 21 23 23 23 22 20 18 17 14 12 13 19 26 31 33 34 34 31 26 23 24 30 38 46 52 56 59 64 74 87 98 102 103 103 103 104 104 104 105 104 103 102 101 100 100 101 101 102 101 100 101 102 102 102
3 3 3 3 3 3 3 3 3 3 4 5 5 6 7 7 8 9 10 12 14 17 20 21 21 20 19 18 17 18 18 20 22 22 22 20 19 17 16 14 12 14 21 28 32 33 34 34 30 25 23 26 33 41 48 53 56 60 69 83 96 101 102 102 103 103 103 103 103 104 104 103 102 101 101 101 102 101 101 101 100 100 102 103 103
2 3 3 3 3 3 4 3 3 4 4 5 6 7 7 8 9 9 11 13 16 18 20 21 20 20 19 18 17 18 18 20 22 22 21 19 18 16 15 13 12 16 23 29 33 34 34 33 29 24 24 29 37 45 51 54 56 64 78 92 100 102 101 102 102 102 101 101 102 103 103 103 103 103 102 102 102 102 101 101 100 100 101 102 104
3 3 3 3 3 4 4 3 4 4 5 5 7 8 8 8 10 10 12 15 17 19 20 20 20 19 18 17 17 17 18 20 22 21 20 19 17 16 14 12 12 18 26 31 33 35 35 32 27 23 25 33 42 49 54 56 63 76 90 98 100 100 100 101 100 99 99 100 100 102 103 103 102 102 101 101 102 102 102 101 100 101 101 102 103
3 2 3 3 3 3 4 4 4 5 5 6 7 8 9 10 11 12 14 16 18 19 20 19 19 18 18 17 17 17 18 20 22 21 20 18 16 15 13 12 13 20 27 32 35 36 35 30 25 23 28 38 47 53 57 63 76 90 99 101 100 100 100 100 99 99 99 98 98 99 100 100 100 99 98 99 101 102 102 102 100 99 100 100 101
3 3 3 3 3 3 4 4 4 5 6 7 8 9 10 11 12 13 15 17 18 19 19 19 18 18 17 16 16 17 18 20 21 21 19 17 16 14 12 12 15 22 29 33 35 36 34 28 23 25 33 44 51 56 63 75 89 100 103 102 101 100 100 100 100 98 95 91 90 90 91 93 95 95 95 97 99 102 103 103 101 99 99 99 100
3 3 3 3 4 4 4 4 5 6 7 8 9 10 11 12 13 14 16 18 19 19 19 18 18 17 16 16 16 17 18 20 21 20 18 16 15 14 12 12 17 24 31 35 36 36 32 26 23 29 40 49 54 61 73 87 98 103 102 101 101 101 101 100 98 93 86 81 79 80 82 85 88 91 93 95 97 100 102 102 101 100 100 99 100
3 3 3 3 4 4 4 5 5 6 7 9 10 11 12 13 14 16 17 19 19 18 18 18 17 16 15 16 16 16 18 20 20 18 17 15 14 13 12 13 19 27 33 36 37 35 29 24 27 36 46 52 58 70 85 96 102 102 102 101 101 101 101 98 91 82 74 70 69 71 74 78 84 90 92 93 95 99 102 102 100 100 101 100 100
3 3 3 4 4 4 5 5 6 7 9 10 11 12 13 14 15 17 18 18 18 18 17 17 16 15 15 15 15 16 18 20 19 17 16 14 14 12 11 15 22 29 34 36 36 32 26 25 33 43 50 56 67 82 94 100 102 102 102 101 101 101 101 96 84 70 59 56 59 64 70 75 83 91 94 94 94 97 101 101 100 100 100 100 100
4 3 3 4 4 4 5 6 7 8 10 11 12 12 13 15 17 18 18 18 18 17 17 16 15 15 15 15 15 17 18 19 18 16 14 14 13 11 12 17 26 32 35 37 35 28 24 29 39 48 55 64 79 92 98 100 103 103 101 100 102 102 97 86 71 57 49 47 51 58 65 72 81 91 96 96 96 97 100 101 100 100 100 100 100
4 3 3 4 5 5 6 7 8 9 11 12 12 13 14 16 17 18 18 18 17 16 16 15 14 15 15 14 15 17 19 18 16 14 13 13 12 11 13 21 28 34 37 37 32 25 26 34 44 52 62 76 90 97 99 102 104 103 101 102 103 96 82 65 52 45 43 43 46 52 59 65 73 83 91 95 96 97 99 101 101 100 100 100 100
Wind_Speed
29 31 32 33 33 30 27 25 22 20 19 17 16 15 14 12 11 11 10 10 11 13 14 16 18 19 21 21 22 23 25 26 27 27 28 29 30 31 33 33 35 36 36 37 38 38 39 40 40 40 41 41 41 41 41 41 40 41 41 41 42 44 43 43 45 42 40 41 42 41 41 41 40 40 40 39 38 37 38 39 41 42 43 42 40
29 31 31 32 31 28 25 23 20 19 17 15 14 13 11 10 10 9 9 10 11 12 14 16 17 19 19 20 21 22 24 25 26 26 26 27 29 31 32 33 35 36 37 38 38 39 39 40 40 40 41 41 42 42 42 41 41 40 41 41 41 42 43 43 44 44 42 41 41 41 41 41 40 39 39 39 39 38 37 37 38 39 41 40 39
29 30 31 31 30 27 24 21 19 17 15 14 12 11 9 9 9 8 8 9 10 12 14 15 17 17 18 19 20 21 23 24 24 25 25 26 27 30 31 33 35 36 37 38 39 40 40 41 41 41 42 42 42 42 43 42 42 42 41 42 42 42 43 43 43 44 44 43 42 43 42 42 41 40 39 37 37 37 37 38 37 36 38 39 38
29 30 30 30 28 25 22 19 17 16 14 12 10 9 8 8 7 7 7 8 10 12 13 15 15 16 17 18 19 20 21 22 23 24 24 25 27 29 31 33 35 36 38 39 40 41 42 42 43 42 42 42 42 42 43 43 43 43 43 43 43 42 42 43 43 44 45 44 43 44 44 43 42 41 41 39 37 35 35 37 38 37 37 37 38
29 30 30 29 27 23 20 18 16 14 13 10 8 7 6 6 6 6 6 8 9 11 12 13 14 15 16 17 18 19 20 21 22 23 25 26 27 30 32 34 35 37 38 39 40 41 43 43 44 44 43 43 43 43 43 44 44 44 44 44 44 43 43 43 44 44 45 45 44 43 44 44 43 41 42 41 40 38 34 34 36 38 38 38 37
28 29 29 28 25 21 19 16 15 13 11 8 6 5 5 5 5 5 6 7 9 10 11 12 13 14 15 16 17 18 19 20 21 23 25 27 29 31 33 35 36 37 38 39 40 41 43 44 44 44 45 44 44 44 44 44 45 45 45 45 44 44 44 44 45 45 45 46 45 44 44 45 44 42 41 42 42 43 40 36 35 37 40 40 39
28 29 28 26 23 20 17 15 14 12 9 6 4 3 3 4 4 4 5 6 8 9 10 11 12 13 14 16 16 17 18 19 20 22 25 27 29 31 33 35 36 38 39 40 41 42 42 43 44 44 45 45 45 45 45 45 45 46 46 46 46 46 45 45 45 46 46 46 46 46 45 45 45 44 43 42 41 42 43 42 40 39 41 42 43
28 28 27 25 21 18 16 14 13 11 8 5 2 2 2 3 4 4 4 6 7 9 9 10 11 12 14 15 16 17 18 19 20 22 25 27 28 30 32 34 35 37 39 40 41 42 42 42 43 43 44 45 46 47 47 47 47 47 47 47 47 47 47 47 47 47 47 47 47 47 46 45 46 45 44 43 42 42 43 44 44 43 43 43 44
27 27 26 23 20 17 15 13 12 10 7 3 1 0 2 3 3 3 3 5 7 8 8 9 10 12 13 14 15 16 17 19 20 22 24 26 27 29 31 32 34 36 38 39 40 41 42 42 42 43 43 44 45 46 47 48 48 49 49 49 49 49 48 48 48 48 48 48 48 48 47 47 47 46 45 45 45 45 44 44 43 44 44 42 42
27 26 25 22 18 16 15 13 11 9 6 3 2 2 3 4 4 3 3 4 6 7 7 8 9 11 12 13 14 15 16 18 20 22 24 25 26 29 30 32 33 34 36 37 39 40 41 42 42 42 42 42 43 44 45 46 47 48 49 50 50 50 50 49 49 50 49 49 49 50 49 48 48 49 47 47 46 46 45 45 44 44 45 44 43
27 26 23 20 17 15 14 12 11 9 5 4 4 4 4 5 5 3 2 4 5 6 7 7 8 10 11 12 13 15 16 18 20 22 23 25 26 28 31 32 33 34 35 36 37 38 40 41 42 42 42 41 41 41 42 43 44 45 46 48 49 49 50 50 50 50 50 50 50 50 51 50 49 50 49 48 47 46 46 47 46 45 45 46 47
26 25 22 19 16 15 14 12 11 9 6 5 5 5 5 6 5 4 2 3 4 5 6 6 7 9 11 12 13 15 16 18 20 22 24 26 28 29 31 32 33 34 35 36 37 38 38 40 41 42 42 42 41 41 41 41 41 42 43 44 46 47 48 49 50 50 51 51 50 50 52 52 51 51 51 49 48 47 47 47 47 46 44 45 47
26 24 21 18 16 15 13 12 11 9 7 7 7 6 7 7 6 4 2 2 3 4 5 5 7 8 10 12 13 15 17 19 21 23 25 26 28 30 32 33 34 35 36 37 38 39 39 40 40 41 42 42 42 41 41 40 40 40 40 41 43 44 45 46 47 49 50 50 50 50 51 52 52 51 51 51 50 49 49 48 47 46 44 43 44
25 23 20 17 16 15 13 12 11 9 8 8 8 8 8 8 7 5 3 1 2 3 4 5 6 8 10 12 14 16 18 19 21 23 25 27 29 31 32 34 35 37 38 39 40 40 41 41 42 42 42 42 42 42 41 41 40 40 39 40 41 43 44 44 45 46 47 48 49 49 49 50 51 51 51 52 52 51 50 49 48 46 45 43 42
24 22 19 17 16 15 13 12 11 10 9 9 9 9 9 9 8 6 4 1 1 2 3 5 6 8 10 12 14 16 18 20 22 24 26 28 30 31 33 34 36 38 39 40 41 42 43 43 43 43 43 42 43 42 42 41 41 41 40 40 40 41 42 44 44 45 45 46 47 48 48 48 50 51 51 52 52 51 50 50 49 48 45 43 41
23 21 19 17 16 15 14 12 12 10 10 11 10 10 10 10 9 7 5 3 2 2 4 5 7 9 11 13 15 17 19 20 23 24 26 28 30 31 33 34 36 37 39 41 42 43 44 44 44 43 43 43 43 43 43 42 42 42 41 41 41 40 40 41 43 44 45 45 45 45 46 46 47 48 50 50 51 51 50 49 49 48 46 44 42
22 20 18 17 16 15 14 13 12 11 11 12 12 11 12 11 10 8 6 4 3 4 5 6 8 9 11 13 15 17 19 21 23 25 26 27 29 30 32 33 35 36 38 40 41 43 44 45 44 44 43 43 44 44 44 44 44 44 43 42 42 41 40 39 39 41 42 43 44 43 43 43 44 45 46 48 49 50 50 49 49 49 48 47 44
22 19 18 17 17 15 14 14 13 12 13 13 13 13 13 12 11 9 7 5 5 5 6 7 9 10 12 14 16 18 20 22 23 25 26 27 28 29 30 32 34 35 36 38 40 42 43 44 45 44 44 44 45 46 46 47 47 46 46 45 43 42 42 41 39 39 40 41 42 41 40 40 41 42 44 46 47 49 50 50 49 49 49 48 47
20 19 18 18 17 16 15 15 14 14 14 14 14 14 14 13 12 10 9 7 6 6 7 8 10 12 13 15 17 18 20 22 24 25 26 27 28 29 30 31 33 34 36 37 38 40 41 43 43 44 44 45 45 46 47 48 48 48 47 47 46 45 44 44 43 42 42 42 42 41 40 39 39 40 42 43 45 46 48 49 49 49 48 48 47
20 19 19 18 18 16 16 15 15 15 15 15 15 15 14 14 13 11 10 9 8 8 8 9 11 12 14 16 17 19 21 23 24 25 26 27 28 29 31 31 32 34 36 37 38 39 40 41 42 42 43 44 45 46 46 47 48 48 48 48 48 47 46 45 45 45 45 44 43 42 41 39 39 39 40 41 42 43 45 47 47 48 48 47 46
19 18 19 19 18 17 16 16 16 16 16 16 16 15 15 14 14 13 11 10 10 9 10 11 12 14 15 16 18 20 22 23 24 25 26 27 29 30 31 33 34 35 36 38 40 41 41 41 41 42 43 44 44 45 45 46 46 47 48 48 48 48 48 47 46 46 45 45 44 43 42 40 39 39 39 40 41 41 43 45 46 46 47 47 46
18 19 20 19 18 17 17 17 17 17 17 17 17 16 16 15 14 14 13 12 11 11 11 12 13 15 16 17 19 21 22 24 25 26 27 28 29 31 32 33 35 36 37 39 40 42 42 42 42 42 43 43 44 44 44 45 45 46 47 48 48 48 48 47 47 46 46 45 45 44 43 40 39 38 38 39 40 40 42 43 45 45 45 45 46
19 19 20 20 19 18 18 18 18 18 18 18 17 17 16 16 15 15 14 13 12 12 12 13 14 15 16 18 20 21 23 24 25 26 27 28 30 31 33 34 36 38 39 40 42 43 43 43 43 43 43 43 43 43 44 44 45 46 47 47 48 48 48 47 47 47 46 46 45 44 43 41 40 39 39 40 40 40 41 42 43 44 44 43 44
18 19 20 20 20 19 19 19 19 19 18 18 18 17 17 16 16 15 15 14 13 13 14 14 15 16 17 18 20 22 24 25 25 26 27 29 30 32 34 35 37 39 40 41 43 43 43 43 43 43 43 43 42 42 43 45 46 46 47 48 48 48 48 48 47 47 46 46 45 44 43 42 41 40 40 40 41 41 40 40 41 42 42 42 42
18 19 20 20 20 20 20 20 20 19 19 19 19 18 17 16 16 16 15 15 14 14 14 15 16 16 17 19 21 23 24 25 26 27 28 30 31 32 34 36 38 40 41 41 42 42 42 42 42 42 42 41 41 42 42 44 45 45 46 47 47 47 47 47 47 47 46 46 45 45 44 43 42 41 40 40 41 41 40 39 39 40 41 41 41
18 20 21 21 22 21 21 21 21 20 20 20 19 19 17 16 16 16 15 15 15 15 15 16 16 17 17 19 21 23 24 25 26 27 28 30 32 33 35 37 38 40 40 40 40 40 40 40 41 41 40 40 41 41 42 42 43 43 44 45 45 46 46 46 47 47 46 46 46 45 45 43 42 41 41 40 40 41 41 40 39 39 40 40 40
19 20 21 22 22 22 21 21 21 21 21 21 20 19 17 16 16 16 15 15 15 15 15 16 16 17 18 19 22 23 24 24 25 27 29 31 33 34 35 36 38 39 39 39 39 38 38 39 39 40 39 39 39 40 41 41 41 41 41 42 43 44 45 45 46 46 47 46 46 45 45 44 42 41 40 40 40 40 41 41 40 40 40 40 40
19 20 22 23 23 22 22 22 22 22 22 21 21 19 18 17 17 16 15 15 14 14 15 15 16 17 18 20 22 23 24 25 26 27 30 31 33 34 35 36 37 39 39 39 38 37 37 38 38 38 38 38 38 39 39 39 39 39 39 40 41 42 43 44 44 45 45 45 45 45 44 43 43 42 41 40 40 40 41 41 40 40 40 40 40
19 21 22 23 24 24 23 24 24 23 23 22 21 20 19 18 17 16 15 15 15 14 15 15 16 17 18 20 21 23 24 25 26 28 30 32 33 34 36 37 38 39 40 40 39 38 38 38 38 39 39 40 40 40 39 38 37 37 38 39 41 42 43 44 44 44 45 45 45 45 44 44 43 43 42 41 40 40 40 41 40 40 39 39 39
18 20 21 23 24 24 24 24 24 24 23 23 22 20 19 18 17 16 15 15 15 15 15 16 16 17 19 20 21 21 22 24 26 27 30 31 33 34 36 38 39 41 41 40 40 40 39 39 39 40 41 42 42 42 41 40 39 39 39 40 42 43 44 45 45 45 46 46 46 46 45 44 44 43 43 42 41 41 40 40 40 40 39 38 38
17 18 20 22 24 24 24 25 25 25 24 23 22 21 20 19 17 16 15 15 15 15 16 16 17 17 19 20 21 21 22 23 25 27 29 31 32 33 35 37 39 41 41 41 40 40 40 40 40 41 42 43 43 43 42 42 42 42 42 42 43 44 45 46 46 47 47 47 47 46 46 45 44 44 43 43 42 41 40 39 38 38 38 37 37
16 17 19 22 24 25 25 26 26 26 25 23 22 21 20 19 18 17 16 16 15 15 16 16 17 18 19 19 21 22 23 25 26 28 29 31 32 33 34 36 39 40 41 41 41 41 41 41 41 42 43 44 43 43 42 42 43 43 44 44 45 46 46 47 47 48 48 48 48 47 47 46 45 44 43 43 42 41 40 39 38 37 37 36 36
16 17 19 22 24 25 26 26 26 26 25 24 23 22 21 19 18 17 16 16 15 16 16 17 18 19 19 19 20 22 24 25 27 28 30 31 32 33 34 36 38 40 41 41 41 41 41 41 42 43 44 44 44 43 42 43 43 44 44 45 46 47 47 48 48 48 48 48 48 48 48 47 46 45 44 43 42 41 40 40 38 37 36 35 34
17 17 19 22 25 26 27 27 26 26 25 25 24 23 21 20 19 18 17 16 16 16 17 18 18 19 19 20 21 22 24 26 28 29 31 33 34 34 35 36 38 39 40 41 41 41 41 41 42 43 44 44 44 43 43 43 43 44 45 45 46 47 47 48 48 49 49 49 49 48 48 48 47 46 45 43 42 41 40 39 38 37 36 35 34
18 17 18 21 25 28 28 28 28 27 27 26 25 24 23 21 20 19 18 17 16 17 18 19 19 19 19 20 21 23 25 26 28 30 33 34 35 36 36 37 38 39 40 41 41 41 41 42 43 44 44 44 44 43 43 43 44 45 46 46 47 47 48 48 49 49 49 49 49 49 49 48 48 46 45 44 43 41 40 38 38 37 36 35 34
19 18 18 20 24 28 29 30 29 29 28 27 26 25 23 22 21 20 19 18 17 17 19 19 19 19 19 19 21 23 25 27 29 31 33 35 36 37 38 40 40 40 41 41 41 41 41 41 43 44 44 44 44 44 44 44 45 45 46 47 48 48 49 49 49 49 49 49 50 50 49 49 48 46 45 44 43 42 40 38 37 37 36 35 34
19 18 18 19 24 28 29 30 30 30 29 27 26 25 23 22 21 20 19 18 18 18 19 20 20 20 20 20 21 23 25 27 30 32 34 36 37 39 40 42 42 42 42 42 42 41 40 41 43 44 44 44 44 44 44 45 46 46 47 47 48 49 50 50 50 50 50 50 49 49 49 48 47 46 45 43 42 41 40 38 36 36 35 34 33
21 20 19 20 24 28 29 29 29 28 27 26 25 24 23 23 22 20 19 18 18 18 20 20 20 20 21 22 22 24 26 28 30 32 34 36 38 39 40 41 42 42 42 42 42 41 41 41 43 44 45 45 45 45 45 46 46 47 48 48 49 50 50 51 50 50 50 50 49 49 48 47 46 45 44 43 41 40 39 38 36 35 34 33 32
21 20 20 22 26 29 30 29 28 27 26 25 25 24 24 23 21 21 20 18 18 19 19 19 20 21 21 22 23 24 26 27 29 31 32 34 36 38 39 40 41 41 41 42 42 42 42 43 44 45 46 46 46 46 46 47 47 48 49 50 50 51 51 51 51 50 50 50 49 48 47 46 45 45 43 42 41 40 39 38 36 35 33 32 31
21 20 21 22 25 29 29 29 28 27 26 26 26 25 24 23 22 21 20 18 18 19 19 19 20 21 21 22 23 24 25 27 29 30 31 33 34 36 38 40 40 41 41 42 42 42 43 44 45 46 46 46 46 47 47 48 49 49 50 51 51 52 52 52 51 50 50 49 48 47 47 46 44 44 43 42 41 40 39 37 36 35 33 32 30
21 21 21 22 25 28 29 29 29 28 27 27 26 25 23 23 22 21 19 19 19 18 18 18 20 21 22 22 24 25 26 27 29 30 31 33 35 36 38 39 40 41 42 42 42 43 43 45 46 47 47 47 47 47 48 49 50 51 51 52 52 52 52 51 51 50 49 48 48 47 46 45 44 43 42 41 40 39 38 37 36 35 33 32 30
21 20 20 21 25 27 28 28 29 28 28 27 25 24 23 23 22 20 19 19 18 17 17 18 20 21 22 23 25 26 27 29 30 31 32 34 36 37 39 39 40 41 42 42 43 44 45 46 47 47 48 48 48 49 49 51 51 52 52 53 53 53 52 51 50 50 48 47 46 46 45 44 44 43 42 41 39 38 38 37 35 34 33 32 30
22 20 19 21 25 26 27 29 29 29 28 26 25 25 24 22 21 20 20 18 17 17 17 18 20 22 23 24 26 27 28 30 31 32 33 35 36 38 39 40 40 41 41 42 43 45 46 47 48 48 48 48 49 50 51 52 53 53 54 54 53 52 52 51 50 49 48 46 45 45 44 44 43 43 42 41 39 38 37 36 35 34 33 32 30
23 21 19 21 25 28 29 31 31 29 28 27 26 25 23 21 21 20 19 18 17 16 17 18 20 22 24 26 27 28 29 31 32 33 34 36 37 38 39 39 40 40 41 42 43 45 47 48 48 48 48 48 49 50 52 53 54 54 54 54 53 52 52 51 50 49 48 46 45 44 44 43 43 42 41 40 39 38 36 35 34 33 32 31 30
24 21 19 20 25 29 31 32 31 30 29 27 25 23 22 21 21 20 18 17 16 16 17 18 20 21 24 26 28 29 30 31 32 34 35 36 37 39 39 39 40 40 41 42 43 45 47 49 49 48 48 48 49 51 52 53 54 54 54 54 53 52 52 51 50 49 48 47 46 45 44 43 42 42 41 40 39 37 36 35 34 32 31 30 29
25 21 19 20 24 29 31 31 30 30 28 26 24 23 22 21 20 19 18 17 17 17 17 19 20 22 24 26 28 29 30 31 32 34 35 36 38 39 39 39 40 40 41 42 44 46 48 49 49 49 49 49 50 51 52 53 53 54 54 53 53 52 52 51 50 49 49 48 47 46 44 43 42 41 40 39 38 37 36 34 33 32 31 29 29
26 22 19 19 24 29 31 31 30 29 28 26 24 23 22 21 20 18 17 17 17 17 18 19 21 23 25 27 28 29 30 31 33 34 35 37 38 39 39 39 39 40 40 42 44 46 48 49 49 49 49 50 51 52 53 53 53 53 53 53 53 52 51 51 50 50 49 48 47 46 45 44 42 41 40 39 38 36 35 34 33 31 30 29 28
26 22 19 19 25 29 30 29 29 28 27 25 24 23 22 21 19 18 17 17 17 17 18 20 22 24 26 28 29 30 31 32 33 34 36 37 38 39 39 39 39 40 40 42 44 47 48 49 48 48 49 50 51 52 53 53 53 53 52 52 52 52 51 51 51 50 50 49 48 47 45 44 42 41 40 38 37 36 35 33 32 31 29 28 27
27 23 19 19 24 28 29 28 28 28 26 26 25 24 22 20 18 18 18 18 17 18 19 21 23 25 27 28 30 31 31 32 33 34 36 37 38 38 39 39 39 40 41 43 45 47 48 48 48 49 50 51 52 53 53 53 53 52 52 52 52 52 52 52 52 51 50 49 48 47 45 44 42 40 39 38 37 36 34 33 31 30 29 27 26
28 24 19 18 23 28 29 29 28 28 27 26 25 23 21 20 19 18 18 17 18 19 20 22 24 26 28 29 30 31 32 32 34 35 36 37 38 38 38 39 39 40 42 44 46 47 48 48 48 49 50 51 52 53 53 53 52 52 52 52 52 52 52 52 52 51 51 49 48 47 45 44 42 40 38 37 36 35 34 32 30 29 28 27 25
29 25 20 18 21 27 30 29 28 28 27 26 24 22 21 20 19 19 18 18 19 20 21 23 25 27 28 30 31 31 32 33 34 35 36 37 38 38 38 39 39 40 42 44 46 47 47 47 48 49 50 51 52 52 52 52 52 52 52 52 52 52 52 51 51 51 50 49 47 46 45 43 41 39 37 36 35 34 32 31 29 28 27 26 25
Wind_Direction
304 308 313 318 321 323 320 318 319 324 328 334 341 346 353 3 15 27 38 45 48 46 40 36 32 33 35 36 37 35 35 35 35 34 32 27 24 22 20 19 18 17 17 16 15 14 12 10 9 7 5 3 1 1 0 360 359 359 357 357 355 354 356 355 355 359 360 355 354 355 354 355 355 355 354 354 353 351 349 348 346 344 343 344 345
302 308 313 317 321 321 317 315 318 323 327 334 341 347 356 9 21 35 45 50 50 45 39 35 33 34 38 39 39 36 34 32 31 32 30 25 21 18 16 15 14 14 13 12 11 10 9 7 6 4 2 1 359 358 357 357 357 357 356 355 355 353 353 354 353 354 357 358 355 354 355 355 354 355 355 355 354 353 351 349 348 345 343 344 346
302 307 313 317 319 318 314 313 316 321 326 333 341 350 0 15 29 43 53 54 51 44 39 35 34 37 41 40 39 36 33 30 28 27 26 22 17 14 13 12 11 11 10 9 8 6 5 4 3 1 360 359 357 355 355 354 354 355 355 354 354 353 352 352 352 352 354 357 357 355 355 356 354 353 355 356 356 355 353 350 350 349 346 346 349
301 307 312 316 317 315 311 311 314 319 325 332 341 352 5 22 39 53 59 56 49 43 38 35 36 39 42 41 38 35 32 28 24 22 21 19 14 10 10 9 8 8 7 6 5 3 2 1 360 359 358 357 356 354 353 352 352 352 353 353 353 352 352 352 352 351 352 355 357 356 354 355 356 353 352 354 355 357 357 352 350 351 351 350 352
301 306 312 315 315 311 307 308 312 317 323 331 340 354 11 33 53 64 64 56 49 43 39 36 38 40 40 39 36 32 28 24 20 17 16 14 11 7 6 6 5 5 4 3 3 2 0 359 357 356 356 355 354 353 352 351 351 351 351 352 353 352 352 352 352 352 351 352 356 357 354 354 356 356 353 352 352 354 358 357 353 352 352 353 355
300 306 312 314 312 307 303 305 310 315 321 329 338 354 19 47 68 76 68 56 49 44 40 37 38 39 38 35 33 28 24 20 16 12 11 10 7 5 4 3 2 2 2 2 1 1 359 357 356 355 354 353 352 352 351 350 350 350 351 352 353 353 352 352 352 352 352 352 353 356 355 353 354 356 355 354 353 352 353 357 357 356 355 353 354
300 306 311 311 308 303 300 303 307 310 316 322 331 356 32 66 84 85 68 55 49 45 40 38 37 36 34 31 28 24 19 15 11 8 7 6 4 2 1 1 360 359 360 360 360 359 358 356 355 354 352 351 351 350 350 350 350 350 350 351 351 351 351 352 352 352 352 351 351 353 355 353 352 355 356 355 355 353 351 353 355 357 358 355 353
299 306 309 308 304 298 296 300 303 305 308 310 316 360 59 89 101 94 70 55 49 44 40 38 36 33 31 27 23 18 13 9 6 4 3 2 0 360 359 359 358 358 358 358 358 357 356 355 354 353 352 351 350 349 349 349 349 349 349 349 350 350 350 350 350 350 350 350 349 350 353 352 351 353 356 355 356 355 353 353 353 355 357 357 353
299 305 307 305 299 294 293 296 298 298 297 286 261 152 111 119 123 106 73 54 48 44 38 35 32 29 26 23 17 12 7 4 2 1 360 359 358 357 357 357 358 358 357 357 357 355 354 354 353 352 352 351 350 349 348 348 348 347 347 347 348 348 349 349 349 349 349 349 349 349 351 352 351 352 355 356 355 356 354 353 354 354 355 357 355
299 304 305 301 294 289 290 292 290 289 281 251 211 177 146 142 143 123 79 57 47 44 38 32 28 24 21 17 11 5 1 359 358 358 357 356 356 355 356 357 357 357 357 357 356 355 353 352 352 351 351 351 350 349 348 347 346 346 346 346 346 346 347 348 348 348 348 349 349 348 349 351 350 350 353 355 355 355 354 354 355 355 353 353 355
299 303 301 296 288 283 285 285 282 278 263 225 202 182 164 160 157 142 92 60 48 42 36 27 23 19 15 10 4 359 356 355 355 356 355 354 355 355 355 356 356 355 356 356 355 354 352 350 350 350 350 350 350 349 348 346 346 345 344 344 344 345 346 347 347 347 347 348 349 347 347 349 350 349 351 353 353 354 355 355 355 356 355 353 352
299 301 298 291 282 279 279 278 273 266 245 212 200 187 174 171 167 156 116 68 50 41 32 23 16 13 8 3 357 353 352 353 353 354 354 353 354 355 355 354 354 354 354 355 354 353 352 350 349 348 349 349 349 349 348 347 346 345 344 343 343 344 346 346 346 346 346 347 348 347 345 346 348 348 348 350 353 354 355 355 354 356 356 355 352
297 298 295 286 277 274 274 271 265 254 230 207 199 191 182 179 175 168 148 79 54 38 25 15 9 6 1 354 350 348 349 351 352 352 353 353 354 354 354 353 353 353 353 353 353 352 352 351 349 348 348 348 348 348 348 348 347 347 346 345 344 345 346 346 346 346 346 345 346 346 345 344 345 346 346 348 351 353 354 354 354 355 355 355 353
296 295 291 280 272 270 268 264 257 243 221 204 199 194 188 185 183 179 174 122 52 27 10 3 359 357 354 348 344 345 347 349 351 351 351 353 353 354 353 352 351 352 352 352 352 351 351 350 350 349 348 348 348 348 349 348 348 349 348 348 347 346 346 346 346 346 346 345 345 346 345 344 344 344 345 347 348 349 350 350 351 353 354 355 355
294 293 286 274 267 265 262 257 249 235 214 203 200 197 192 190 188 189 192 198 5 360 348 346 349 349 347 343 340 342 346 348 350 351 351 352 353 353 352 352 351 351 351 350 350 350 350 349 349 349 348 348 347 348 348 348 348 349 350 349 349 349 347 347 346 346 346 346 346 346 346 345 345 345 346 346 345 345 346 346 346 349 352 354 356
293 289 280 268 262 260 256 250 242 228 210 203 202 199 196 194 193 198 207 223 274 323 328 331 339 343 340 338 338 341 345 347 348 349 351 352 352 352 351 351 351 350 349 349 348 348 348 348 348 348 348 348 347 347 347 348 348 348 349 349 349 350 349 348 347 347 347 347 347 346 347 346 346 347 346 345 344 343 343 343 343 346 349 352 356
290 285 273 262 258 256 251 244 236 223 207 203 204 200 199 198 199 205 215 231 262 295 311 322 332 337 335 335 337 340 343 345 346 348 350 351 351 350 350 349 349 348 348 348 347 347 347 347 347 348 348 347 347 347 347 347 347 347 348 348 348 349 350 350 349 348 348 347 347 347 347 347 346 347 346 345 344 342 342 342 343 345 349 351 355
288 280 267 258 255 252 247 239 230 218 207 204 205 203 201 201 204 211 222 238 261 283 300 316 327 331 332 332 335 339 342 343 345 346 348 348 348 349 349 348 347 346 347 347 347 347 346 346 346 347 347 347 347 346 346 346 346 346 346 347 348 348 349 350 350 350 350 349 349 348 347 346 346 346 346 345 345 343 342 342 343 345 348 350 352
283 274 261 255 252 248 242 235 226 215 207 205 205 205 203 204 208 215 225 242 260 279 295 311 323 326 328 330 334 338 340 341 342 344 345 346 347 347 347 347 346 345 345 347 347 347 346 345 346 346 346 346 346 346 345 344 345 345 345 346 348 349 350 350 350 350 351 351 350 349 348 347 346 346 346 345 346 345 343 342 342 343 346 349 351
280 270 259 253 249 244 237 231 223 214 207 206 206 207 205 206 211 218 229 244 259 275 293 308 318 322 324 328 332 335 337 338 339 341 343 345 345 345 345 345 345 345 345 345 346 347 346 346 346 346 346 346 345 345 344 344 343 344 344 345 347 348 349 349 349 349 350 350 350 350 349 349 347 346 346 346 346 346 345 344 343 343 345 348 350
278 266 256 249 246 241 233 227 222 214 208 207 208 208 208 208 213 221 232 245 259 273 290 304 312 317 321 326 330 333 334 335 337 339 342 343 344 344 344 344 344 344 345 345 345 346 346 346 346 346 346 346 345 344 344 344 343 343 344 344 345 346 347 348 347 347 348 348 349 349 348 349 348 346 346 346 346 347 347 346 345 344 344 346 349
271 258 251 247 243 238 231 225 220 213 209 208 208 209 210 211 215 223 234 246 258 272 287 299 307 313 319 324 327 330 331 332 335 338 341 342 343 344 344 344 344 344 345 345 345 345 346 346 346 346 346 345 345 344 344 344 343 343 343 343 343 344 345 345 345 345 345 346 347 347 347 348 348 347 346 346 347 348 348 347 346 345 344 344 347
265 255 249 245 241 235 228 222 218 213 209 208 209 210 211 213 218 226 236 247 259 272 285 296 303 309 316 322 325 327 329 331 333 337 340 342 342 343 344 344 344 345 345 346 346 346 346 346 346 345 345 345 345 344 343 343 343 343 342 342 342 343 343 343 343 343 343 344 345 346 347 346 347 347 346 346 347 348 349 348 347 345 344 343 344
262 253 247 244 239 232 226 221 217 214 210 208 210 211 213 216 221 229 238 248 259 272 283 291 299 307 314 319 322 324 326 329 333 337 339 341 342 342 344 345 345 345 345 346 346 345 345 345 344 344 344 343 344 343 343 343 343 342 342 341 341 341 341 341 342 342 342 343 344 345 346 346 346 346 346 345 346 348 349 348 346 345 345 344 344
257 251 247 242 237 230 224 219 217 213 210 209 210 212 214 217 222 229 239 249 259 270 281 289 297 304 312 317 320 322 325 328 333 338 340 341 341 342 344 345 345 345 345 345 345 344 343 343 342 342 342 342 342 343 343 343 343 342 341 340 340 340 341 341 342 342 343 343 343 344 345 346 345 345 345 344 344 345 347 347 346 345 345 345 345
254 250 246 240 235 228 222 218 216 214 211 210 211 212 215 218 223 230 239 250 260 270 279 288 296 303 310 315 318 321 325 329 334 338 340 341 341 342 344 345 345 344 343 343 343 342 342 341 340 340 341 341 341 343 343 343 343 342 340 340 339 340 341 342 342 343 343 344 344 344 344 345 345 344 344 343 342 342 344 346 346 345 345 346 347
255 252 246 240 233 227 221 217 216 214 211 211 212 214 216 219 225 231 239 249 260 270 278 286 295 302 308 314 317 320 325 331 335 338 340 342 342 342 343 343 342 341 341 341 341 341 340 339 339 339 340 340 341 342 343 343 343 342 341 340 339 340 341 342 343 343 343 343 344 344 344 343 343 343 342 341 341 341 342 343 344 345 344 345 347
256 251 244 237 230 224 219 216 216 214 212 211 212 214 216 220 225 232 240 249 259 269 278 286 294 300 307 313 318 321 326 332 337 340 341 342 342 341 341 341 340 339 339 340 340 340 340 339 338 338 339 340 341 342 343 343 343 342 341 340 340 340 341 342 342 342 342 342 342 343 343 343 342 343 342 341 340 340 340 341 342 343 344 344 345
255 250 242 234 228 222 218 215 215 214 212 212 212 214 217 222 227 233 241 250 258 267 277 285 292 299 307 313 318 322 326 331 336 340 341 341 341 340 339 339 338 338 339 339 339 339 340 339 338 338 340 341 342 342 343 343 343 343 342 341 340 340 341 341 342 342 341 341 342 342 342 343 342 342 342 342 341 341 340 340 341 342 343 343 343
256 250 242 233 228 223 218 215 215 215 213 213 214 216 219 222 227 232 240 250 261 269 278 285 292 299 307 313 317 321 325 329 334 338 340 340 339 339 338 338 337 337 338 339 339 339 339 340 339 340 341 342 342 342 343 343 343 343 343 342 341 341 341 341 341 341 341 341 341 341 342 342 342 342 341 342 342 342 341 341 341 341 341 342 342
255 248 239 231 228 223 217 215 215 215 214 214 215 217 220 224 228 235 243 253 263 271 278 285 293 300 307 312 317 320 324 329 334 338 339 338 337 337 337 336 336 337 337 338 339 339 339 340 340 341 341 342 342 342 342 342 342 342 343 342 341 341 341 341 341 341 341 341 341 341 341 341 341 341 341 341 341 341 341 341 341 340 340 341 341
251 243 234 228 225 221 217 215 215 214 214 215 216 218 222 226 232 239 246 253 262 270 278 285 293 300 306 311 315 319 324 329 333 336 337 336 335 336 336 336 336 336 337 337 338 339 339 340 340 341 341 341 342 342 341 341 341 341 341 342 342 341 341 341 341 341 341 340 340 340 340 340 341 341 340 340 340 340 340 341 341 341 340 340 341
246 239 232 227 224 220 217 215 216 216 215 215 217 219 222 227 234 240 247 254 262 271 279 287 293 300 306 310 314 318 322 327 331 334 334 334 334 335 336 336 336 337 336 336 337 338 339 339 339 340 341 341 341 341 341 340 340 340 340 341 341 341 341 341 341 340 340 339 339 339 339 339 340 340 340 339 339 339 339 339 340 340 340 340 340
242 238 234 229 224 219 216 215 216 217 216 216 218 221 224 229 236 242 250 258 265 272 280 287 293 299 305 310 314 318 322 325 329 332 332 333 334 335 336 337 337 337 336 336 337 338 338 338 339 339 339 340 339 339 339 339 339 339 340 340 340 341 340 340 340 339 339 338 338 338 338 338 339 339 339 338 338 338 337 337 338 339 339 339 339
241 239 238 233 225 218 214 214 214 216 217 218 220 222 226 231 237 244 252 259 266 274 280 286 292 297 304 310 314 317 321 324 327 330 331 332 333 335 336 337 337 337 336 336 337 338 337 337 338 338 338 338 338 338 338 338 338 339 339 339 340 339 339 339 339 338 338 338 337 337 338 338 338 338 338 337 337 337 337 336 337 337 338 339 339
241 243 245 240 230 221 215 213 213 215 217 218 220 223 227 233 238 246 253 260 267 274 280 286 291 296 301 307 312 316 320 323 326 329 331 332 333 335 336 337 337 337 337 336 336 336 336 336 336 336 337 337 337 337 337 337 338 338 338 338 338 338 338 338 338 338 337 337 337 337 337 337 337 338 338 337 336 336 336 336 336 336 337 338 338
240 245 250 243 230 222 218 216 216 216 217 218 221 224 229 234 240 247 254 260 267 275 280 286 291 296 300 305 310 315 320 323 326 329 330 332 333 335 336 337 337 337 336 335 334 334 335 334 334 335 336 336 336 336 336 337 337 337 338 338 337 337 337 337 337 337 337 338 337 337 337 337 337 337 337 337 337 336 335 335 335 335 335 336 337
239 243 248 240 227 220 219 219 219 219 219 220 223 226 230 236 242 248 254 261 268 275 281 287 293 297 302 308 313 317 322 324 327 329 330 331 332 334 334 335 335 335 334 333 333 333 334 334 334 335 336 336 335 336 336 336 337 337 337 337 337 337 337 337 337 338 338 338 337 337 336 336 337 337 337 337 337 336 335 334 334 334 334 334 335
240 245 249 240 224 217 217 218 219 220 221 222 224 227 231 236 242 248 254 261 268 274 281 287 292 296 302 309 314 318 322 324 326 328 329 329 330 331 331 332 333 333 332 332 332 332 333 334 334 335 335 335 335 335 336 336 336 336 336 336 336 336 337 337 338 338 338 337 337 337 336 336 336 336 336 336 336 336 335 334 333 333 333 333 334
241 248 252 243 227 219 217 217 217 218 220 222 224 228 232 237 243 249 255 260 267 274 281 287 292 296 302 309 313 317 320 323 324 326 327 327 328 329 330 331 332 332 332 331 331 332 333 333 334 335 335 335 335 335 336 336 336 336 335 335 336 336 337 337 338 338 338 337 337 336 336 335 335 335 335 336 336 335 335 334 333 332 331 331 332
239 247 252 243 229 222 219 217 217 218 219 222 226 229 234 239 244 249 255 261 268 275 282 287 291 297 304 309 313 317 320 322 324 325 326 328 329 330 330 331 332 332 332 331 331 331 332 333 334 334 334 335 335 335 335 335 335 335 335 335 336 337 337 337 338 338 338 337 337 336 336 335 334 334 334 335 335 334 334 333 332 331 330 330 329
238 250 255 241 229 224 222 218 218 219 221 224 227 231 235 240 246 250 256 262 269 275 282 288 293 299 305 310 314 317 320 322 324 325 327 329 330 331 331 332 332 332 331 331 331 331 332 333 334 334 334 335 335 335 335 335 335 335 335 335 336 337 337 337 337 337 338 337 337 336 335 335 334 334 334 334 334 333 333 332 331 330 329 328 328
239 252 257 242 228 224 221 218 218 220 222 224 227 231 236 241 247 252 257 263 269 275 281 288 294 301 306 311 314 318 320 323 324 326 327 329 330 331 331 332 331 331 331 330 330 331 331 332 333 334 334 335 335 335 334 334 334 334 335 336 336 337 337 337 337 337 337 337 337 336 335 334 334 334 333 333 333 333 332 331 330 329 328 327 326
239 252 260 246 229 221 217 216 217 219 222 224 228 232 238 243 247 252 258 263 268 275 281 288 295 301 306 311 314 318 320 323 324 326 328 329 330 330 331 331 331 330 330 330 330 330 331 332 333 334 335 335 334 334 334 334 334 334 335 336 337 337 337 337 337 337 338 338 337 336 335 334 334 333 333 333 332 332 331 330 329 329 328 327 326
239 251 263 252 231 219 215 214 216 219 222 226 229 234 238 243 247 253 259 263 267 274 282 288 295 301 305 310 314 317 320 322 323 325 327 328 329 329 330 330 330 330 330 330 330 330 330 331 333 334 335 334 334 334 334 333 334 335 335 336 336 337 337 337 337 338 338 338 337 336 336 335 334 333 332 332 332 331 331 330 329 328 327 327 326
237 248 261 252 231 219 214 214 217 220 223 226 230 233 237 243 248 253 258 262 267 275 282 289 296 301 305 309 312 316 319 321 322 324 326 327 328 329 330 330 330 330 330 329 329 329 330 332 333 334 334 334 334 333 333 333 334 335 335 336 336 336 337 337 338 338 338 338 337 336 336 335 334 333 332 331 331 331 331 330 329 328 327 326 326
234 244 257 248 228 218 215 215 218 221 224 226 230 233 238 243 248 252 256 261 267 275 283 290 296 301 305 309 312 315 318 320 322 324 326 327 327 329 329 329 329 330 330 329 329 330 331 332 333 333 334 334 333 333 333 334 335 335 336 336 336 336 337 338 338 338 338 337 337 336 335 335 334 333 332 331 330 330 330 329 328 328 327 326 325
232 240 253 245 227 218 217 218 219 222 224 227 230 234 238 243 247 251 255 261 268 277 285 291 296 302 306 309 312 315 317 319 322 324 325 326 327 328 329 329 329 329 329 329 329 330 331 332 333 333 333 333 333 333 333 334 335 336 336 336 336 337 337 338 338 338 337 337 336 335 335 334 334 332 331 330 329 329 329 329 328 327 326 326 324
230 238 250 244 228 220 219 220 221 222 225 228 231 234 238 242 246 249 254 262 270 279 286 292 297 302 306 308 312 314 316 319 322 324 325 326 327 328 328 329 329 329 329 330 330 331 332 332 333 333 333 333 333 333 334 335 336 336 336 336 337 337 338 338 337 337 337 336 336 335 334 334 333 331 330 329 328 328 328 328 327 326 326 325 324
228 236 248 245 229 222 221 221 221 223 225 228 232 236 238 241 244 249 255 264 273 280 287 293 298 302 306 309 312 314 316 319 322 324 325 326 327 328 328 328 329 329 329 330 331 332 332 333 333 333 333 333 333 334 335 336 336 336 337 337 337 338 338 337 337 337 336 336 335 334 333 332 331 330 329 327 327 326 327 326 326 325 324 324 325
227 234 246 247 233 224 222 222 222 223 226 229 232 235 237 240 243 249 256 265 274 281 288 294 298 302 306 309 311 313 316 319 322 324 325 326 327 327 328 328 328 329 330 331 331 332 332 333 333 333 333 333 334 335 336 336 337 337 337 338 338 338 337 337 337 336 336 335 335 333 332 331 330 329 327 326 325 324 324 325 324 323 323 323 325